Midland, MI

9:26 AM EST on February 12, 2016 (GMT -0500)
Barstow

Weather History for KIKW - November, 2013

Change the Weather History Date:

Sunday, November 3, 2013

  Actual Average (KMBS) Record (KMBS)
Temperature  
Mean Temperature 35 °F 44 °F  
Max Temperature 44 °F 52 °F 74 °F (2015)
Min Temperature 26 °F 35 °F 24 °F (2002)
Degree Days  
Heating Degree Days 30    
Month to date heating degree days  
Since 1 July heating degree days  
Cooling Degree Days 0    
Month to date cooling degree days  
Year to date cooling degree days  
Moisture  
Dew Point 31 °F    
Average Humidity 80    
Maximum Humidity 99    
Minimum Humidity 64    
Precipitation  
Precipitation 0.00 in 0.09 in 0.31 in (2003)
Month to date precipitation 0.28  
Year to date precipitation 27.26  
Snow  
Snow 0.00 in - - ()
Month to date snowfall  
Since 1 July snowfall  
Since 1 September snowfall  
Snow Depth -    
Sea Level Pressure  
Sea Level Pressure 30.31 in    
Wind  
Wind Speed 3 mph (East)    
Max Wind Speed 10 mph    
Max Gust Speed -    
Visibility 10 miles    
Events      
T = Trace of Precipitation, MM = Missing Value Source: NWS Daily Summary

Daily Weather History Graph

Daily Weather History Graph

Search for Another Location

Airport or City:

Trip Planner

Search our weather history database for the weather conditions in past years. The results will help you decide how hot, cold, wet, or windy it might be!

Date:

Astronomy

Nov. 03, 2013 Rise Set
Actual Time 7:15 AM EST 5:24 PM EST
Civil Twilight 6:45 AM EST 5:54 PM EST
Nautical Twilight 6:11 AM EST 6:28 PM EST
Astronomical Twilight 5:38 AM EST 7:02 PM EST
Moon 7:19 AM EST (11/3) 5:38 PM EST (11/3)
Length of Visible Light 11h 09m
Length of Day
10h 09m
New Moon, 0% of the Moon is Illuminated
Nov 3
New Moon
Nov 10
First Quarter
Nov 17
Full
Nov 25
Last Quarter
Dec 2
New

Hourly Weather History & Observations

Time (EST) Temp. Windchill Dew Point Humidity Pressure Visibility Wind Dir Wind Speed Gust Speed Precip Events Conditions
12:13 AM 35.8 °F - 31.6 °F 85% 30.13 in 10.0 mi Calm Calm - N/A   Overcast
12:34 AM 35.8 °F - 31.3 °F 84% 30.14 in 10.0 mi Calm Calm - N/A   Overcast
12:53 AM 36.1 °F 33.5 °F 31.3 °F 83% 30.14 in 10.0 mi NW 3.5 mph - N/A   Overcast
1:14 AM 36.3 °F 33.7 °F 31.3 °F 82% 30.14 in 10.0 mi NNW 3.5 mph - N/A   Overcast
1:34 AM 36.0 °F 33.3 °F 31.5 °F 84% 30.15 in 10.0 mi NNW 3.5 mph - N/A   Overcast
1:53 AM 35.8 °F - 31.1 °F 83% 30.15 in 10.0 mi Calm Calm - N/A   Overcast
1:14 AM 35.4 °F - 30.9 °F 84% 30.16 in 10.0 mi Calm Calm - N/A   Overcast
1:34 AM 34.3 °F - 31.1 °F 88% 30.17 in 10.0 mi Calm Calm - N/A   Overcast
1:53 AM 32.0 °F 27.5 °F 30.4 °F 94% 30.18 in 10.0 mi NNE 4.6 mph - N/A   Mostly Cloudy
2:14 AM 31.8 °F - 29.7 °F 92% 30.18 in 10.0 mi Calm Calm - N/A   Scattered Clouds
2:34 AM 31.3 °F - 29.8 °F 94% 30.18 in 10.0 mi Calm Calm - N/A   Clear
2:53 AM 30.2 °F - 29.3 °F 96% 30.20 in 10.0 mi Calm Calm - N/A   Clear
3:14 AM 29.7 °F - 29.1 °F 98% 30.20 in 10.0 mi Calm Calm - N/A   Clear
3:34 AM 28.9 °F - 28.6 °F 99% 30.21 in 10.0 mi Calm Calm - N/A   Clear
3:53 AM 28.4 °F - 28.2 °F 99% 30.21 in 10.0 mi Calm Calm - N/A   Clear
4:14 AM 29.5 °F - 29.3 °F 99% 30.22 in 10.0 mi Calm Calm - N/A   Clear
4:33 AM 29.3 °F - 28.6 °F 97% 30.22 in 10.0 mi Calm Calm - N/A   Clear
4:53 AM 29.3 °F - 28.6 °F 97% 30.23 in 10.0 mi Calm Calm - N/A   Clear
5:14 AM 28.9 °F - 28.0 °F 96% 30.24 in 10.0 mi Calm Calm - N/A   Clear
5:33 AM 30.9 °F 27.5 °F 29.7 °F 95% 30.25 in 10.0 mi NNE 3.5 mph - N/A   Clear
5:53 AM 29.1 °F - 27.1 °F 92% 30.25 in 10.0 mi Calm Calm - N/A   Clear
6:14 AM 28.6 °F - 27.5 °F 96% 30.27 in 10.0 mi Calm Calm - N/A   Clear
6:33 AM 28.4 °F - 27.9 °F 98% 30.27 in 10.0 mi Calm Calm - N/A   Clear
6:54 AM 27.5 °F - 27.1 °F 99% 30.28 in 10.0 mi Calm Calm - N/A   Clear
7:13 AM 26.4 °F - 26.1 °F 99% 30.29 in 10.0 mi Calm Calm - N/A   Clear
7:34 AM 27.3 °F - 27.0 °F 99% 30.30 in 10.0 mi Calm Calm - N/A   Clear
7:54 AM 28.2 °F - 27.7 °F 98% 30.31 in 10.0 mi Calm Calm - N/A   Clear
8:13 AM 30.6 °F - 30.0 °F 98% 30.32 in 10.0 mi Calm Calm - N/A   Clear
8:34 AM 31.5 °F - 30.6 °F 96% 30.33 in 10.0 mi Calm Calm - N/A   Clear
8:54 AM 32.9 °F - 31.6 °F 95% 30.34 in 10.0 mi Calm Calm - N/A   Clear
9:13 AM 34.3 °F - 31.6 °F 90% 30.34 in 10.0 mi Calm Calm - N/A   Clear
9:34 AM 37.6 °F 35.1 °F 33.3 °F 84% 30.34 in 10.0 mi ENE 3.5 mph - N/A   Clear
9:54 AM 39.6 °F 36.3 °F 33.6 °F 79% 30.34 in 10.0 mi ENE 4.6 mph - N/A   Clear
10:13 AM 41.0 °F 38.0 °F 34.7 °F 78% 30.35 in 10.0 mi ENE 4.6 mph - N/A   Clear
10:34 AM 42.4 °F 38.8 °F 34.7 °F 74% 30.36 in 10.0 mi ESE 5.8 mph - N/A   Scattered Clouds
10:54 AM 41.9 °F 37.5 °F 33.1 °F 71% 30.36 in 10.0 mi ESE 6.9 mph - N/A   Mostly Cloudy
11:13 AM 43.0 °F 38.8 °F 33.3 °F 69% 30.37 in 10.0 mi ESE 6.9 mph - N/A   Overcast
11:34 AM 42.6 °F 38.4 °F 33.4 °F 70% 30.36 in 10.0 mi East 6.9 mph - N/A   Overcast
11:53 AM 42.6 °F 37.8 °F 33.1 °F 69% 30.36 in 10.0 mi East 8.1 mph - N/A   Overcast
12:13 PM 42.4 °F 38.1 °F 33.1 °F 69% 30.36 in 10.0 mi East 6.9 mph - N/A   Overcast
12:34 PM 42.6 °F 39.0 °F 32.5 °F 68% 30.36 in 10.0 mi East 5.8 mph - N/A   Overcast
12:53 PM 43.2 °F 39.7 °F 33.3 °F 68% 30.36 in 10.0 mi ESE 5.8 mph - N/A   Overcast
1:13 PM 43.2 °F 39.0 °F 32.7 °F 67% 30.36 in 10.0 mi East 6.9 mph - N/A   Overcast
1:34 PM 43.7 °F 41.1 °F 32.7 °F 65% 30.36 in 10.0 mi ESE 4.6 mph - N/A   Overcast
1:53 PM 43.3 °F 38.6 °F 32.7 °F 66% 30.36 in 10.0 mi East 8.1 mph - N/A   Overcast
2:13 PM 43.3 °F 39.2 °F 32.5 °F 66% 30.36 in 10.0 mi East 6.9 mph - N/A   Overcast
2:34 PM 43.7 °F 39.7 °F 32.5 °F 65% 30.36 in 10.0 mi East 6.9 mph - N/A   Overcast
2:53 PM 44.2 °F 40.3 °F 32.7 °F 64% 30.36 in 10.0 mi East 6.9 mph - N/A   Overcast
3:14 PM 43.7 °F 39.1 °F 33.3 °F 67% 30.36 in 10.0 mi East 8.1 mph - N/A   Overcast
3:34 PM 43.7 °F 39.7 °F 33.8 °F 68% 30.36 in 10.0 mi ESE 6.9 mph - N/A   Overcast
3:53 PM 43.5 °F 37.9 °F 33.4 °F 68% 30.36 in 10.0 mi East 10.4 mph - N/A   Overcast
4:14 PM 43.7 °F 39.1 °F 33.8 °F 68% 30.36 in 10.0 mi ESE 8.1 mph - N/A   Overcast
4:34 PM 43.7 °F 39.7 °F 33.3 °F 67% 30.37 in 10.0 mi East 6.9 mph - N/A   Overcast
4:53 PM 43.3 °F 39.9 °F 33.8 °F 69% 30.37 in 10.0 mi ESE 5.8 mph - N/A   Overcast
5:14 PM 43.3 °F 39.9 °F 33.3 °F 68% 30.37 in 10.0 mi East 5.8 mph - N/A   Overcast
5:34 PM 43.2 °F 40.5 °F 33.4 °F 69% 30.38 in 10.0 mi ESE 4.6 mph - N/A   Overcast
5:53 PM 43.2 °F 39.7 °F 32.9 °F 67% 30.38 in 10.0 mi ESE 5.8 mph - N/A   Overcast
6:14 PM 42.8 °F 39.3 °F 32.9 °F 68% 30.39 in 10.0 mi ESE 5.8 mph - N/A   Overcast
6:34 PM 42.8 °F 41.1 °F 33.3 °F 69% 30.39 in 10.0 mi ESE 3.5 mph - N/A   Overcast
6:53 PM 42.6 °F 40.9 °F 33.3 °F 69% 30.40 in 10.0 mi ESE 3.5 mph - N/A   Overcast
7:13 PM 42.8 °F 39.3 °F 32.0 °F 66% 30.40 in 10.0 mi ESE 5.8 mph - N/A   Overcast
7:33 PM 42.8 °F 39.3 °F 31.8 °F 65% 30.40 in 10.0 mi ESE 5.8 mph - N/A   Overcast
7:53 PM 42.4 °F 38.1 °F 32.0 °F 67% 30.40 in 10.0 mi ESE 6.9 mph - N/A   Overcast
8:13 PM 42.4 °F 38.8 °F 31.6 °F 66% 30.40 in 10.0 mi SE 5.8 mph - N/A   Overcast
8:33 PM 42.3 °F 37.9 °F 31.8 °F 67% 30.40 in 10.0 mi SE 6.9 mph - N/A   Overcast
8:53 PM 40.8 °F 36.2 °F 31.6 °F 70% 30.40 in 10.0 mi SE 6.9 mph - N/A   Scattered Clouds
9:14 PM 40.1 °F 33.6 °F 32.2 °F 73% 30.41 in 10.0 mi East 10.4 mph - N/A   Clear
9:33 PM 38.7 °F 31.8 °F 32.0 °F 77% 30.41 in 10.0 mi ESE 10.4 mph - N/A   Clear
9:53 PM 37.8 °F 31.8 °F 31.1 °F 77% 30.42 in 10.0 mi ESE 8.1 mph - N/A   Clear
10:14 PM 36.7 °F 29.9 °F 30.4 °F 78% 30.42 in 10.0 mi ESE 9.2 mph - N/A   Clear
10:33 PM 36.7 °F 30.5 °F 30.2 °F 77% 30.42 in 10.0 mi ESE 8.1 mph - N/A   Clear
10:53 PM 36.0 °F 29.0 °F 30.0 °F 79% 30.42 in 10.0 mi ESE 9.2 mph - N/A   Clear